{"data":{"norad_id":53438,"intl_designator":"2022-097BC","name":"STARLINK-4526","alt_names":[],"object_type":"PAYLOAD","status":"ACTIVE","operator":null,"country":"US","launch_date":"2022-08-10","launch_site_code":"AFETR","launch_vehicle":null,"mission":null,"orbit_class":"UNKNOWN","rcs_meters":null,"size_class":null,"mass_kg":null,"dimensions":null,"purposes":["comms"],"wikipedia_slug":null,"has_3d_model":false,"image_url":null,"decayed_at":null,"tle_current":{"epoch":"2026-05-25T05:29:30.365088Z","epoch_age_seconds":62194,"freshness":"FRESH","line1":"1 53438U 22097BC  26145.22882367 -.00001351  00000+0 -66776-4 0  9996","line2":"2 53438  53.2140 120.1652 0001259  73.9894 286.1237 15.08849591210354","mean_motion":15.08849591,"eccentricity":0.0001259,"inclination_deg":53.214,"raan_deg":120.1652,"arg_perigee_deg":73.9894,"mean_anomaly_deg":286.1237,"bstar":-6.6776e-5,"rev_number":21035,"period_min":95.436948029103,"perigee_km":538.84311581921,"apogee_km":540.58503071945,"semimajor_km":6917.8510732693,"source":"CELESTRAK","updated_at":"2026-05-25T13:38:17.407433Z"}}}